Regional Weather Roundup
Issued by NWS Northern Indiana

Home | Current Version | Previous Version | Text Only | Print | Product List | Glossary Off
Versions: 1 2 3 4 5 6 7 8 9 10 11 12 13 14 15 16 17 18 19 20 21 22 23 24 25 26 27 28 29 30 31 32 33 34 35 36 37 38 39 40 41 42 43 44 45 46 47 48 49 50

000
ASUS43 KIWX 282310
RWRIWX

KIWX WEATHER ROUNDUP
NATIONAL WEATHER SERVICE NORTHERN INDIANA
700 PM EDT THU AUG 28 2014

NOTE: "FAIR" INDICATES FEW OR NO CLOUDS BELOW 12,000 FEET WITH NO
SIGNIFICANT WEATHER AND/OR OBSTRUCTIONS TO VISIBILITY.

* THESE STATIONS ARE NOT UNDER NWS QUALITY CONTROL. THEY ALSO MAY NOT
  REPORT WEATHER SUCH AS PRECIPITATION OR FOG.

INZ001>027-290000-
NORTHERN INDIANA

CITY           SKY/WX    TMP DP  RH WIND       PRES   REMARKS
GARY*          MOSUNNY   75  64  69 NE12      30.07S
VALPARAISO     MOSUNNY   78  62  57 SE5       30.06S
MICHIGAN CITY* MOSUNNY   72  61  68 N5        30.07R
LAPORTE*       MOSUNNY   77  62  60 SE5       30.07S
KNOX*          SUNNY     78  63  59 SE5       30.05S
SOUTH BEND     MOSUNNY   79  59  50 SE9       30.07S
GOSHEN         MOSUNNY   78  61  55 E7        30.07S
MONTICELLO*    SUNNY     79  65  62 E3        30.04R
LOGANSPORT*    SUNNY     79  63  57 E7        30.06S
ROCHESTER*     SUNNY     79  64  61 E7        30.07S
WARSAW*        MOSUNNY   77  63  61 E6        30.07S
ANGOLA*        MOSUNNY   75  66  73 SE3       30.09S
FORT WAYNE     MOSUNNY   76  62  62 E6        30.08S
HUNTINGTON*    SUNNY     75  64  68 E3        30.07S
PERU/GRISSOM   MOSUNNY   78  69  72 E7        30.06R
MARION*        SUNNY     77  63  61 E9        30.07R

$$
INZ028>050-290000-
CENTRAL INDIANA

CITY           SKY/WX    TMP DP  RH WIND       PRES   REMARKS
LAFAYETTE      SUNNY     79  66  64 E7        30.03S
KOKOMO*        SUNNY     79  64  61 SE6       30.05S
MUNCIE*        SUNNY     78  63  59 E8        30.06S
INDIANAPOLIS   MOSUNNY   82  65  56 E8        30.03R

$$
MIZ043>046-050>051-056>058-064>065-071>073-077>080-290000-
SOUTHWEST LOWER MICHIGAN

CITY           SKY/WX    TMP DP  RH WIND       PRES   REMARKS
BATTLE CREEK   PTSUNNY   73  55  53 NE7       30.10S
BENTON HARBOR  MOSUNNY   77  60  55 E7        30.06S
COLDWATER*     MOSUNNY   76  58  52 N6        30.09S
HILLSDALE*     MOSUNNY   75  55  50 E3        30.10F
HOLLAND        PTSUNNY   73  53  49 E5        30.10S
GRAND RAPIDS   PTSUNNY   72  55  55 E6        30.11F
KALAMAZOO      PTSUNNY   76  57  51 E7        30.09S
STURGIS*         N/A     73  61  64 NE3       30.08S
THREE RIVERS*  FAIR      75  58  54 NE5       30.08F

$$
OHZ001>008-015>018-024>025-290000-
NORTHWEST OHIO

CITY           SKY/WX    TMP DP  RH WIND       PRES   REMARKS
WAUSEON*       FAIR      73  57  56 E5        30.10S
DEFIANCE       MOSUNNY   75  58  55 NE5       30.09S
FINDLAY        SUNNY     74  57  55 E9        30.09S
TOLEDO EXPRESS SUNNY     72  57  59 E8        30.10S
TOLEDO METCALF SUNNY     70  55  59 E7        30.11F
LIMA           MOSUNNY   76  62  62 E6        30.09S

$$
&&



USA.gov is the U.S. government's official web portal to all federal, state and local government web resources and services.